contact:dominique.lefevre@mio.osupytheas.fr, maurice.libes@osupytheas.fr, didier.mallarino@osupytheas.fr
Project:EMSO http://www.emso-fr.org/EMSO-France
Depth: 2436.0 m
Title:EMSO Ligure Ouest : Data MII capteur CSTAR
DateTime,Latitude,Longitude,Instrument_Serial,Reference_Counts,Signal_Counts,Corrected_Signal_raw_counts,Calculated_Beam_c_inverse_meters,Internal_thermistor_counts
DateTime,Latitude,Longitude,Instrument_Serial,Reference_Counts,Signal_Counts,Corrected_Signal_raw_counts,Calculated_Beam_c_inverse_meters,Internal_thermistor_counts
2022-10-10T00:01:02,42.805,6.029,CST-1368DR,4548,5046,11808,01.118,551
2022-10-10T00:04:04,42.805,6.029,CST-1368DR,4548,5048,11812,01.117,551
2022-10-10T00:07:05,42.805,6.029,CST-1368DR,4548,5048,11811,01.117,551
2022-10-10T00:10:07,42.805,6.029,CST-1368DR,4548,5048,11811,01.117,551
2022-10-10T00:13:09,42.805,6.029,CST-1368DR,4549,5049,11811,01.117,551
2022-10-10T00:16:10,42.805,6.029,CST-1368DR,4548,5051,11818,01.115,551
2022-10-10T00:19:12,42.805,6.029,CST-1368DR,4549,5050,11813,01.116,551
2022-10-10T00:22:13,42.805,6.029,CST-1368DR,4549,5051,11816,01.115,551
2022-10-10T00:25:15,42.805,6.029,CST-1368DR,4549,5046,11805,01.119,551
2022-10-10T00:28:16,42.805,6.029,CST-1368DR,4549,5051,11816,01.115,551
2022-10-10T00:31:18,42.805,6.029,CST-1368DR,4549,5045,11801,01.120,551
2022-10-10T00:34:20,42.805,6.029,CST-1368DR,4549,5047,11808,01.118,551
2022-10-10T00:37:21,42.805,6.029,CST-1368DR,4549,5045,11802,01.120,551
2022-10-10T00:40:23,42.805,6.029,CST-1368DR,4549,5047,11806,01.119,551
2022-10-10T00:43:24,42.805,6.029,CST-1368DR,4549,5045,11803,01.120,551
2022-10-10T00:46:26,42.805,6.029,CST-1368DR,4548,5045,11804,01.119,551
2022-10-10T00:49:27,42.805,6.029,CST-1368DR,4548,5045,11804,01.119,551
2022-10-10T00:52:29,42.805,6.029,CST-1368DR,4548,5042,11797,01.122,551
2022-10-10T00:55:31,42.805,6.029,CST-1368DR,4548,5040,11792,01.123,551
2022-10-10T00:58:32,42.805,6.029,CST-1368DR,4548,5035,11781,01.127,551
2022-10-10T01:01:34,42.805,6.029,CST-1368DR,4548,5032,11775,01.129,551
2022-10-10T01:04:35,42.805,6.029,CST-1368DR,4548,5027,11763,01.133,551
2022-10-10T01:07:37,42.805,6.029,CST-1368DR,4548,5029,11767,01.132,551
2022-10-10T01:10:39,42.805,6.029,CST-1368DR,4549,5032,11772,01.130,551
2022-10-10T01:13:40,42.805,6.029,CST-1368DR,4549,5027,11759,01.135,551
2022-10-10T01:16:42,42.805,6.029,CST-1368DR,4549,5026,11757,01.135,551
2022-10-10T01:19:43,42.805,6.029,CST-1368DR,4548,5030,11770,01.131,551
2022-10-10T01:22:45,42.805,6.029,CST-1368DR,4548,5024,11755,01.136,551
2022-10-10T01:25:46,42.805,6.029,CST-1368DR,4549,5029,11765,01.133,551
2022-10-10T01:28:48,42.805,6.029,CST-1368DR,4548,5029,11766,01.132,551
2022-10-10T01:31:50,42.805,6.029,CST-1368DR,4548,5028,11764,01.133,551
2022-10-10T01:34:51,42.805,6.029,CST-1368DR,4548,5029,11768,01.132,551
2022-10-10T01:37:53,42.805,6.029,CST-1368DR,4548,5031,11772,01.130,551
2022-10-10T01:40:54,42.805,6.029,CST-1368DR,4548,5026,11760,01.134,551
2022-10-10T01:43:56,42.805,6.029,CST-1368DR,4548,5026,11760,01.134,551
2022-10-10T01:46:58,42.805,6.029,CST-1368DR,4548,5022,11751,01.137,551
2022-10-10T01:49:59,42.805,6.029,CST-1368DR,4548,5021,11749,01.138,551
2022-10-10T01:53:01,42.805,6.029,CST-1368DR,4548,5024,11756,01.136,551
2022-10-10T01:56:02,42.805,6.029,CST-1368DR,4548,5025,11757,01.135,551
2022-10-10T01:59:04,42.805,6.029,CST-1368DR,4548,5025,11758,01.135,551
2022-10-10T02:02:05,42.805,6.029,CST-1368DR,4548,5026,11760,01.134,551
2022-10-10T02:05:07,42.805,6.029,CST-1368DR,4548,5036,11784,01.126,551
2022-10-10T02:08:09,42.805,6.029,CST-1368DR,4548,5029,11766,01.132,551
2022-10-10T02:11:10,42.805,6.029,CST-1368DR,4548,5029,11768,01.132,551
2022-10-10T02:14:12,42.805,6.029,CST-1368DR,4548,5027,11763,01.133,551
2022-10-10T02:17:13,42.805,6.029,CST-1368DR,4548,5029,11767,01.132,551
2022-10-10T02:20:15,42.805,6.029,CST-1368DR,4548,5033,11777,01.129,551
2022-10-10T02:23:16,42.805,6.029,CST-1368DR,4548,5034,11779,01.128,550
2022-10-10T02:26:18,42.805,6.029,CST-1368DR,4548,5031,11772,01.130,551
2022-10-10T02:29:20,42.805,6.029,CST-1368DR,4548,5032,11774,01.130,551
2022-10-10T02:32:21,42.805,6.029,CST-1368DR,4548,5041,11795,01.122,551
2022-10-10T02:35:23,42.805,6.029,CST-1368DR,4548,5043,11801,01.120,551
2022-10-10T02:38:24,42.805,6.029,CST-1368DR,4548,5051,11818,01.115,551
2022-10-10T02:41:26,42.805,6.029,CST-1368DR,4548,5046,11808,01.118,551
2022-10-10T02:44:28,42.805,6.029,CST-1368DR,4548,5046,11806,01.119,551
2022-10-10T02:47:29,42.805,6.029,CST-1368DR,4548,5044,11801,01.120,551
2022-10-10T02:50:31,42.805,6.029,CST-1368DR,4548,5045,11805,01.119,551
2022-10-10T02:53:32,42.805,6.029,CST-1368DR,4548,5046,11807,01.118,551
2022-10-10T02:56:34,42.805,6.029,CST-1368DR,4548,5051,11818,01.115,551
2022-10-10T02:59:35,42.805,6.029,CST-1368DR,4548,5048,11811,01.117,551
2022-10-10T03:02:37,42.805,6.029,CST-1368DR,4548,5046,11808,01.118,551
2022-10-10T03:05:39,42.805,6.029,CST-1368DR,4548,5043,11799,01.121,551
2022-10-10T03:08:40,42.805,6.029,CST-1368DR,4548,5050,11817,01.115,551
2022-10-10T03:11:42,42.805,6.029,CST-1368DR,4548,5051,11818,01.115,551
2022-10-10T03:14:43,42.805,6.029,CST-1368DR,4548,5046,11807,01.118,551
2022-10-10T03:17:45,42.805,6.029,CST-1368DR,4548,5046,11807,01.118,551
2022-10-10T03:20:46,42.805,6.029,CST-1368DR,4548,5046,11806,01.119,551
2022-10-10T03:23:48,42.805,6.029,CST-1368DR,4548,5046,11808,01.118,551
2022-10-10T03:26:50,42.805,6.029,CST-1368DR,4548,5049,11813,01.116,551
2022-10-10T03:29:51,42.805,6.029,CST-1368DR,4548,5051,11818,01.115,551
2022-10-10T03:32:53,42.805,6.029,CST-1368DR,4548,5049,11814,01.116,551
2022-10-10T03:35:54,42.805,6.029,CST-1368DR,4548,5047,11810,01.117,551
2022-10-10T03:38:56,42.805,6.029,CST-1368DR,4548,5046,11807,01.118,551
2022-10-10T03:41:58,42.805,6.029,CST-1368DR,4548,5050,11816,01.115,551
2022-10-10T03:44:59,42.805,6.029,CST-1368DR,4548,5048,11812,01.117,551
2022-10-10T03:48:01,42.805,6.029,CST-1368DR,4548,5049,11814,01.116,551
2022-10-10T03:51:02,42.805,6.029,CST-1368DR,4548,5054,11825,01.112,551
2022-10-10T03:54:04,42.805,6.029,CST-1368DR,4548,5051,11818,01.115,551
2022-10-10T03:57:05,42.805,6.029,CST-1368DR,4548,5046,11807,01.118,551
2022-10-10T04:00:07,42.805,6.029,CST-1368DR,4548,5048,11811,01.117,551
2022-10-10T04:03:09,42.805,6.029,CST-1368DR,4548,5054,11826,01.112,551
2022-10-10T04:06:10,42.805,6.029,CST-1368DR,4548,5048,11812,01.117,551
2022-10-10T04:09:12,42.805,6.029,CST-1368DR,4548,5050,11815,01.116,551
2022-10-10T04:12:13,42.805,6.029,CST-1368DR,4548,5048,11811,01.117,551
2022-10-10T04:15:15,42.805,6.029,CST-1368DR,4548,5057,11832,01.110,551
2022-10-10T04:18:17,42.805,6.029,CST-1368DR,4548,5048,11812,01.117,551
2022-10-10T04:21:18,42.805,6.029,CST-1368DR,4548,5049,11815,01.116,551
2022-10-10T04:24:20,42.805,6.029,CST-1368DR,4548,5050,11815,01.116,551
2022-10-10T04:27:21,42.805,6.029,CST-1368DR,4548,5051,11819,01.114,551
2022-10-10T04:30:23,42.805,6.029,CST-1368DR,4548,5047,11810,01.117,551
2022-10-10T04:33:24,42.805,6.029,CST-1368DR,4548,5041,11794,01.123,551
2022-10-10T04:36:26,42.805,6.029,CST-1368DR,4548,5042,11797,01.122,551
2022-10-10T04:39:28,42.805,6.029,CST-1368DR,4548,5039,11790,01.124,551
2022-10-10T04:42:29,42.805,6.029,CST-1368DR,4548,5036,11784,01.126,551
2022-10-10T04:45:31,42.805,6.029,CST-1368DR,4548,5030,11769,01.131,551
2022-10-10T04:48:32,42.805,6.029,CST-1368DR,4548,5025,11759,01.135,551
2022-10-10T04:51:34,42.805,6.029,CST-1368DR,4548,5030,11770,01.131,551
2022-10-10T04:54:35,42.805,6.029,CST-1368DR,4548,5033,11776,01.129,551
2022-10-10T04:57:37,42.805,6.029,CST-1368DR,4548,5035,11781,01.127,551
2022-10-10T05:00:39,42.805,6.029,CST-1368DR,4548,5036,11784,01.126,551
2022-10-10T05:03:40,42.805,6.029,CST-1368DR,4548,5035,11781,01.127,551
2022-10-10T05:06:42,42.805,6.029,CST-1368DR,4548,5033,11776,01.129,551
2022-10-10T05:09:43,42.805,6.029,CST-1368DR,4548,5034,11780,01.128,551
2022-10-10T05:12:45,42.805,6.029,CST-1368DR,4548,5045,11805,01.119,551
2022-10-10T05:15:47,42.805,6.029,CST-1368DR,4548,5037,11787,01.125,551
2022-10-10T05:18:48,42.805,6.029,CST-1368DR,4548,5039,11791,01.124,551
2022-10-10T05:21:50,42.805,6.029,CST-1368DR,4548,5039,11790,01.124,551
2022-10-10T05:24:51,42.805,6.029,CST-1368DR,4548,5044,11803,01.120,551
2022-10-10T05:27:53,42.805,6.029,CST-1368DR,4548,5048,11811,01.117,551
2022-10-10T05:30:54,42.805,6.029,CST-1368DR,4548,5049,11815,01.116,551
2022-10-10T05:33:56,42.805,6.029,CST-1368DR,4548,5050,11817,01.115,551
2022-10-10T05:36:58,42.805,6.029,CST-1368DR,4548,5050,11816,01.115,551
2022-10-10T05:39:59,42.805,6.029,CST-1368DR,4548,5046,11807,01.118,551
2022-10-10T05:43:01,42.805,6.029,CST-1368DR,4548,5043,11800,01.121,551
2022-10-10T05:46:02,42.805,6.029,CST-1368DR,4548,5044,11802,01.120,551
2022-10-10T05:49:04,42.805,6.029,CST-1368DR,4548,5051,11818,01.115,551
2022-10-10T05:52:05,42.805,6.029,CST-1368DR,4548,5049,11815,01.116,551
2022-10-10T05:55:07,42.805,6.029,CST-1368DR,4548,5044,11803,01.120,551
2022-10-10T05:58:09,42.805,6.029,CST-1368DR,4548,5040,11793,01.123,551
2022-10-10T06:01:10,42.805,6.029,CST-1368DR,4548,5040,11794,01.123,551
2022-10-10T06:04:12,42.805,6.029,CST-1368DR,4548,5050,11817,01.115,551
2022-10-10T06:07:13,42.805,6.029,CST-1368DR,4548,5044,11803,01.120,551
2022-10-10T06:10:15,42.805,6.029,CST-1368DR,4548,5049,11815,01.116,551
2022-10-10T06:13:17,42.805,6.029,CST-1368DR,4548,5045,11805,01.119,551
2022-10-10T06:16:18,42.805,6.029,CST-1368DR,4548,5050,11815,01.116,551
2022-10-10T06:19:20,42.805,6.029,CST-1368DR,4548,5043,11800,01.121,551
2022-10-10T06:22:21,42.805,6.029,CST-1368DR,4548,5049,11814,01.116,551
2022-10-10T06:25:23,42.805,6.029,CST-1368DR,4548,5042,11798,01.121,551
2022-10-10T06:28:24,42.805,6.029,CST-1368DR,4548,5050,11817,01.115,551
2022-10-10T06:31:26,42.805,6.029,CST-1368DR,4548,5045,11804,01.119,551
2022-10-10T06:34:28,42.805,6.029,CST-1368DR,4548,5051,11819,01.114,551
2022-10-10T06:37:29,42.805,6.029,CST-1368DR,4548,5050,11817,01.115,551
2022-10-10T06:40:31,42.805,6.029,CST-1368DR,4548,5048,11812,01.117,551
2022-10-10T06:43:32,42.805,6.029,CST-1368DR,4548,5051,11818,01.115,551
2022-10-10T06:46:34,42.805,6.029,CST-1368DR,4548,5048,11811,01.117,551
2022-10-10T06:49:35,42.805,6.029,CST-1368DR,4548,5047,11810,01.117,551
2022-10-10T06:52:37,42.805,6.029,CST-1368DR,4548,5047,11809,01.118,551
2022-10-10T06:55:39,42.805,6.029,CST-1368DR,4548,5043,11801,01.120,551
2022-10-10T06:58:40,42.805,6.029,CST-1368DR,4548,5050,11816,01.115,551
2022-10-10T07:01:42,42.805,6.029,CST-1368DR,4548,5046,11806,01.119,551
2022-10-10T07:04:43,42.805,6.029,CST-1368DR,4548,5044,11802,01.120,551
2022-10-10T07:07:45,42.805,6.029,CST-1368DR,4548,5051,11818,01.115,551
2022-10-10T07:10:47,42.805,6.029,CST-1368DR,4548,5044,11803,01.120,551
2022-10-10T07:13:48,42.805,6.029,CST-1368DR,4548,5047,11810,01.117,551
2022-10-10T07:16:50,42.805,6.029,CST-1368DR,4548,5044,11803,01.120,551
2022-10-10T07:19:51,42.805,6.029,CST-1368DR,4548,5050,11817,01.115,551
2022-10-10T07:22:53,42.805,6.029,CST-1368DR,4548,5044,11803,01.120,551
2022-10-10T07:25:54,42.805,6.029,CST-1368DR,4548,5046,11807,01.118,551
2022-10-10T07:28:56,42.805,6.029,CST-1368DR,4548,5046,11807,01.118,551
2022-10-10T07:31:58,42.805,6.029,CST-1368DR,4548,5042,11797,01.122,551
2022-10-10T07:34:59,42.805,6.029,CST-1368DR,4548,5051,11818,01.115,551
2022-10-10T07:38:01,42.805,6.029,CST-1368DR,4548,5047,11809,01.118,551
2022-10-10T07:41:02,42.805,6.029,CST-1368DR,4548,5050,11817,01.115,551
2022-10-10T07:44:04,42.805,6.029,CST-1368DR,4548,5048,11812,01.117,551
2022-10-10T07:47:06,42.805,6.029,CST-1368DR,4548,5048,11812,01.117,551
2022-10-10T07:50:07,42.805,6.029,CST-1368DR,4548,5050,11816,01.115,551
2022-10-10T07:53:09,42.805,6.029,CST-1368DR,4548,5048,11811,01.117,551
2022-10-10T07:56:10,42.805,6.029,CST-1368DR,4548,5051,11819,01.114,551
2022-10-10T07:59:12,42.805,6.029,CST-1368DR,4548,5047,11810,01.117,551
2022-10-10T08:02:13,42.805,6.029,CST-1368DR,4548,5051,11818,01.115,551
2022-10-10T08:05:15,42.805,6.029,CST-1368DR,4548,5050,11817,01.115,551
2022-10-10T08:08:17,42.805,6.029,CST-1368DR,4548,5041,11796,01.122,551
2022-10-10T08:11:18,42.805,6.029,CST-1368DR,4548,5052,11820,01.114,551
2022-10-10T08:14:20,42.805,6.029,CST-1368DR,4548,5037,11787,01.125,551
2022-10-10T08:17:21,42.805,6.029,CST-1368DR,4548,5049,11813,01.116,551
2022-10-10T08:20:23,42.805,6.029,CST-1368DR,4548,5042,11797,01.122,551
2022-10-10T08:23:24,42.805,6.029,CST-1368DR,4548,5049,11814,01.116,551
2022-10-10T08:26:26,42.805,6.029,CST-1368DR,4548,5048,11811,01.117,551
2022-10-10T08:29:28,42.805,6.029,CST-1368DR,4548,5044,11803,01.120,551
2022-10-10T08:32:29,42.805,6.029,CST-1368DR,4548,5047,11810,01.117,551
2022-10-10T08:35:31,42.805,6.029,CST-1368DR,4548,5045,11804,01.119,551
2022-10-10T08:38:32,42.805,6.029,CST-1368DR,4548,5049,11814,01.116,551
2022-10-10T08:41:34,42.805,6.029,CST-1368DR,4548,5052,11822,01.113,551
2022-10-10T08:44:36,42.805,6.029,CST-1368DR,4548,5049,11814,01.116,551
2022-10-10T08:47:37,42.805,6.029,CST-1368DR,4548,5046,11807,01.118,551
2022-10-10T08:50:39,42.805,6.029,CST-1368DR,4548,5048,11811,01.117,551
2022-10-10T08:53:40,42.805,6.029,CST-1368DR,4548,5050,11815,01.116,551
2022-10-10T08:56:42,42.805,6.029,CST-1368DR,4548,5049,11814,01.116,551
2022-10-10T08:59:43,42.805,6.029,CST-1368DR,4548,5050,11817,01.115,551
2022-10-10T09:02:45,42.805,6.029,CST-1368DR,4548,5046,11807,01.118,551
2022-10-10T09:05:47,42.805,6.029,CST-1368DR,4548,5051,11819,01.114,551
2022-10-10T09:08:48,42.805,6.029,CST-1368DR,4548,5049,11814,01.116,551
2022-10-10T09:11:50,42.805,6.029,CST-1368DR,4548,5063,11846,01.105,551
2022-10-10T09:14:51,42.805,6.029,CST-1368DR,4548,5049,11814,01.116,551
2022-10-10T09:17:53,42.805,6.029,CST-1368DR,4548,5052,11820,01.114,551
2022-10-10T09:20:54,42.805,6.029,CST-1368DR,4548,5052,11820,01.114,551
2022-10-10T09:23:56,42.805,6.029,CST-1368DR,4548,5052,11822,01.113,551
2022-10-10T09:26:58,42.805,6.029,CST-1368DR,4548,5053,11824,01.113,551
2022-10-10T09:29:59,42.805,6.029,CST-1368DR,4548,5046,11807,01.118,551
2022-10-10T09:33:01,42.805,6.029,CST-1368DR,4548,5054,11827,01.112,551
2022-10-10T09:36:02,42.805,6.029,CST-1368DR,4548,5049,11814,01.116,551
2022-10-10T09:39:04,42.805,6.029,CST-1368DR,4548,5031,11772,01.130,551
2022-10-10T09:42:06,42.805,6.029,CST-1368DR,4548,5055,11829,01.111,551
2022-10-10T09:45:07,42.805,6.029,CST-1368DR,4548,5056,11830,01.111,551
2022-10-10T09:48:09,42.805,6.029,CST-1368DR,4548,5043,11800,01.121,551
2022-10-10T09:51:10,42.805,6.029,CST-1368DR,4548,5049,11814,01.116,551
2022-10-10T09:54:12,42.805,6.029,CST-1368DR,4548,5046,11807,01.118,551
2022-10-10T09:57:13,42.805,6.029,CST-1368DR,4548,5049,11815,01.116,551
2022-10-10T10:00:15,42.805,6.029,CST-1368DR,4548,5053,11822,01.113,551
2022-10-10T10:03:17,42.805,6.029,CST-1368DR,4548,5051,11818,01.115,551
2022-10-10T10:06:18,42.805,6.029,CST-1368DR,4548,5052,11822,01.113,551
2022-10-10T10:09:20,42.805,6.029,CST-1368DR,4548,5050,11817,01.115,551
2022-10-10T10:12:21,42.805,6.029,CST-1368DR,4548,5035,11782,01.127,551
2022-10-10T10:15:23,42.805,6.029,CST-1368DR,4548,5051,11819,01.114,551
2022-10-10T10:18:25,42.805,6.029,CST-1368DR,4548,5048,11811,01.117,551
2022-10-10T10:21:26,42.805,6.029,CST-1368DR,4548,5035,11781,01.127,551
2022-10-10T10:24:28,42.805,6.029,CST-1368DR,4548,5043,11800,01.121,551
2022-10-10T10:27:29,42.805,6.029,CST-1368DR,4548,5046,11807,01.118,551
2022-10-10T10:30:31,42.805,6.029,CST-1368DR,4548,5047,11810,01.117,551
2022-10-10T10:33:32,42.805,6.029,CST-1368DR,4548,5047,11809,01.118,551
2022-10-10T10:36:34,42.805,6.029,CST-1368DR,4548,5050,11817,01.115,551
2022-10-10T10:39:36,42.805,6.029,CST-1368DR,4548,5046,11806,01.119,551
2022-10-10T10:42:37,42.805,6.029,CST-1368DR,4548,5046,11807,01.118,551
2022-10-10T10:45:39,42.805,6.029,CST-1368DR,4548,5042,11798,01.121,551
2022-10-10T10:48:40,42.805,6.029,CST-1368DR,4548,5048,11811,01.117,551
2022-10-10T10:51:42,42.805,6.029,CST-1368DR,4548,5044,11801,01.120,551
2022-10-10T10:54:43,42.805,6.029,CST-1368DR,4548,5034,11779,01.128,551
2022-10-10T10:57:45,42.805,6.029,CST-1368DR,4548,5049,11813,01.116,551
2022-10-10T11:00:47,42.805,6.029,CST-1368DR,4548,5043,11801,01.120,551
2022-10-10T11:03:48,42.805,6.029,CST-1368DR,4548,5054,11825,01.112,551
2022-10-10T11:06:50,42.805,6.029,CST-1368DR,4548,5053,11824,01.113,551
2022-10-10T11:09:51,42.805,6.029,CST-1368DR,4548,5049,11815,01.116,551
2022-10-10T11:12:53,42.805,6.029,CST-1368DR,4548,5046,11807,01.118,551
2022-10-10T11:15:55,42.805,6.029,CST-1368DR,4548,5040,11793,01.123,551
2022-10-10T11:18:56,42.805,6.029,CST-1368DR,4548,5038,11788,01.125,551
2022-10-10T11:21:58,42.805,6.029,CST-1368DR,4548,5043,11799,01.121,551
2022-10-10T11:24:59,42.805,6.029,CST-1368DR,4548,5041,11795,01.122,551
2022-10-10T11:28:01,42.805,6.029,CST-1368DR,4548,5041,11794,01.123,551
2022-10-10T11:31:02,42.805,6.029,CST-1368DR,4548,5040,11792,01.123,551
2022-10-10T11:34:04,42.805,6.029,CST-1368DR,4548,5036,11784,01.126,551
2022-10-10T11:37:06,42.805,6.029,CST-1368DR,4548,5038,11788,01.125,551
2022-10-10T11:40:07,42.805,6.029,CST-1368DR,4548,5037,11786,01.126,551
2022-10-10T11:43:09,42.805,6.029,CST-1368DR,4548,5036,11784,01.126,551
2022-10-10T11:46:10,42.805,6.029,CST-1368DR,4548,5037,11786,01.126,551
2022-10-10T11:49:12,42.805,6.029,CST-1368DR,4548,5036,11784,01.126,551
2022-10-10T11:52:13,42.805,6.029,CST-1368DR,4548,5039,11790,01.124,551
2022-10-10T11:55:15,42.805,6.029,CST-1368DR,4548,5038,11787,01.125,551
2022-10-10T11:58:17,42.805,6.029,CST-1368DR,4548,5037,11786,01.126,551
2022-10-10T12:01:18,42.805,6.029,CST-1368DR,4548,5037,11786,01.126,551
2022-10-10T12:04:20,42.805,6.029,CST-1368DR,4548,5037,11786,01.126,551
2022-10-10T12:07:21,42.805,6.029,CST-1368DR,4548,5038,11787,01.125,551
2022-10-10T12:10:23,42.805,6.029,CST-1368DR,4548,5038,11788,01.125,551
2022-10-10T12:13:25,42.805,6.029,CST-1368DR,4548,5038,11787,01.125,551
2022-10-10T12:16:26,42.805,6.029,CST-1368DR,4548,5038,11787,01.125,551
2022-10-10T12:19:28,42.805,6.029,CST-1368DR,4548,5037,11787,01.125,551
2022-10-10T12:22:29,42.805,6.029,CST-1368DR,4548,5040,11792,01.123,551
2022-10-10T12:25:31,42.805,6.029,CST-1368DR,4548,5038,11788,01.125,550
2022-10-10T12:28:32,42.805,6.029,CST-1368DR,4548,5039,11791,01.124,551
2022-10-10T12:31:34,42.805,6.029,CST-1368DR,4548,5037,11785,01.126,551
2022-10-10T12:34:36,42.805,6.029,CST-1368DR,4548,5038,11788,01.125,551
2022-10-10T12:37:37,42.805,6.029,CST-1368DR,4548,5039,11790,01.124,551
2022-10-10T12:40:39,42.805,6.029,CST-1368DR,4548,5038,11787,01.125,551
2022-10-10T12:43:40,42.805,6.029,CST-1368DR,4548,5037,11786,01.126,551
2022-10-10T12:46:42,42.805,6.029,CST-1368DR,4548,5037,11787,01.125,551
2022-10-10T12:49:44,42.805,6.029,CST-1368DR,4548,5042,11797,01.122,551
2022-10-10T12:52:45,42.805,6.029,CST-1368DR,4548,5040,11794,01.123,551
2022-10-10T12:55:47,42.805,6.029,CST-1368DR,4548,5040,11792,01.123,551
2022-10-10T12:58:48,42.805,6.029,CST-1368DR,4548,5043,11800,01.121,551
2022-10-10T13:01:50,42.805,6.029,CST-1368DR,4548,5043,11800,01.121,551
2022-10-10T13:04:51,42.805,6.029,CST-1368DR,4548,5041,11795,01.122,551
2022-10-10T13:07:53,42.805,6.029,CST-1368DR,4548,5043,11800,01.121,551
2022-10-10T13:10:55,42.805,6.029,CST-1368DR,4548,5041,11794,01.123,551
2022-10-10T13:13:56,42.805,6.029,CST-1368DR,4548,5040,11793,01.123,551
2022-10-10T13:16:58,42.805,6.029,CST-1368DR,4548,5040,11793,01.123,551
2022-10-10T13:19:59,42.805,6.029,CST-1368DR,4548,5047,11808,01.118,551
2022-10-10T13:23:01,42.805,6.029,CST-1368DR,4548,5044,11803,01.120,551
2022-10-10T13:26:02,42.805,6.029,CST-1368DR,4548,5044,11803,01.120,551
2022-10-10T13:29:04,42.805,6.029,CST-1368DR,4548,5048,11812,01.117,551
2022-10-10T13:32:06,42.805,6.029,CST-1368DR,4548,5051,11819,01.114,551
2022-10-10T13:35:07,42.805,6.029,CST-1368DR,4548,5051,11818,01.115,551
2022-10-10T13:38:09,42.805,6.029,CST-1368DR,4548,5049,11814,01.116,551
2022-10-10T13:41:10,42.805,6.029,CST-1368DR,4548,5046,11806,01.119,551
2022-10-10T13:44:12,42.805,6.029,CST-1368DR,4548,5045,11804,01.119,551
2022-10-10T13:47:14,42.805,6.029,CST-1368DR,4548,5046,11807,01.118,551
2022-10-10T13:50:15,42.805,6.029,CST-1368DR,4548,5050,11815,01.116,551
2022-10-10T13:53:17,42.805,6.029,CST-1368DR,4548,5049,11813,01.116,551
2022-10-10T13:56:18,42.805,6.029,CST-1368DR,4548,5042,11798,01.121,551
2022-10-10T13:59:20,42.805,6.029,CST-1368DR,4548,5052,11822,01.113,551
2022-10-10T14:02:21,42.805,6.029,CST-1368DR,4548,5047,11810,01.117,551
2022-10-10T14:05:23,42.805,6.029,CST-1368DR,4548,5053,11824,01.113,551
2022-10-10T14:08:25,42.805,6.029,CST-1368DR,4548,5050,11817,01.115,551
2022-10-10T14:11:26,42.805,6.029,CST-1368DR,4548,5047,11810,01.117,551
2022-10-10T14:14:28,42.805,6.029,CST-1368DR,4548,5047,11810,01.117,551
2022-10-10T14:17:29,42.805,6.029,CST-1368DR,4548,5049,11815,01.116,551
2022-10-10T14:20:31,42.805,6.029,CST-1368DR,4548,5054,11825,01.112,551
2022-10-10T14:23:33,42.805,6.029,CST-1368DR,4548,5052,11820,01.114,551
2022-10-10T14:26:34,42.805,6.029,CST-1368DR,4548,5051,11818,01.115,551
2022-10-10T14:29:36,42.805,6.029,CST-1368DR,4548,5052,11820,01.114,551
2022-10-10T14:32:37,42.805,6.029,CST-1368DR,4548,5050,11815,01.116,551
2022-10-10T14:35:39,42.805,6.029,CST-1368DR,4548,5050,11817,01.115,551
2022-10-10T14:38:40,42.805,6.029,CST-1368DR,4548,5048,11812,01.117,551
2022-10-10T14:41:42,42.805,6.029,CST-1368DR,4548,5047,11808,01.118,551
2022-10-10T14:44:44,42.805,6.029,CST-1368DR,4548,5051,11819,01.114,551
2022-10-10T14:47:45,42.805,6.029,CST-1368DR,4548,5051,11818,01.115,551
2022-10-10T14:50:47,42.805,6.029,CST-1368DR,4548,5049,11813,01.116,551
2022-10-10T14:53:48,42.805,6.029,CST-1368DR,4548,5051,11819,01.114,551
2022-10-10T14:56:50,42.805,6.029,CST-1368DR,4548,5052,11820,01.114,551
2022-10-10T14:59:51,42.805,6.029,CST-1368DR,4548,5051,11818,01.115,551
2022-10-10T15:02:53,42.805,6.029,CST-1368DR,4548,5053,11824,01.113,551
2022-10-10T15:05:55,42.805,6.029,CST-1368DR,4548,5049,11814,01.116,551
2022-10-10T15:08:56,42.805,6.029,CST-1368DR,4548,5054,11825,01.112,551
2022-10-10T15:11:58,42.805,6.029,CST-1368DR,4548,5050,11815,01.116,551
2022-10-10T15:14:59,42.805,6.029,CST-1368DR,4548,5047,11810,01.117,551
2022-10-10T15:18:01,42.805,6.029,CST-1368DR,4548,5051,11818,01.115,551
2022-10-10T15:21:03,42.805,6.029,CST-1368DR,4548,5046,11808,01.118,551
2022-10-10T15:24:04,42.805,6.029,CST-1368DR,4548,5048,11811,01.117,551
2022-10-10T15:27:06,42.805,6.029,CST-1368DR,4548,5051,11819,01.114,551
2022-10-10T15:30:07,42.805,6.029,CST-1368DR,4548,5047,11810,01.117,551
2022-10-10T15:33:09,42.805,6.029,CST-1368DR,4548,5051,11818,01.115,551
2022-10-10T15:36:10,42.805,6.029,CST-1368DR,4548,5052,11821,01.114,551
2022-10-10T15:39:12,42.805,6.029,CST-1368DR,4548,5052,11822,01.113,551
2022-10-10T15:42:14,42.805,6.029,CST-1368DR,4548,5051,11818,01.115,551
2022-10-10T15:45:15,42.805,6.029,CST-1368DR,4548,5050,11817,01.115,551
2022-10-10T15:48:17,42.805,6.029,CST-1368DR,4548,5051,11818,01.115,551
2022-10-10T15:51:18,42.805,6.029,CST-1368DR,4548,5050,11817,01.115,551
2022-10-10T15:54:20,42.805,6.029,CST-1368DR,4548,5050,11815,01.116,551
2022-10-10T15:57:21,42.805,6.029,CST-1368DR,4548,5051,11818,01.115,551
2022-10-10T16:00:23,42.805,6.029,CST-1368DR,4548,5049,11813,01.116,551
2022-10-10T16:03:25,42.805,6.029,CST-1368DR,4548,5051,11819,01.114,551
2022-10-10T16:06:26,42.805,6.029,CST-1368DR,4548,5051,11819,01.114,551
2022-10-10T16:09:28,42.805,6.029,CST-1368DR,4548,5049,11814,01.116,551
2022-10-10T16:12:29,42.805,6.029,CST-1368DR,4548,5051,11819,01.114,551
2022-10-10T16:15:31,42.805,6.029,CST-1368DR,4548,5051,11818,01.115,551
2022-10-10T16:18:33,42.805,6.029,CST-1368DR,4548,5051,11819,01.114,551
2022-10-10T16:21:34,42.805,6.029,CST-1368DR,4548,5051,11818,01.115,551
2022-10-10T16:24:36,42.805,6.029,CST-1368DR,4548,5050,11817,01.115,551
2022-10-10T16:27:37,42.805,6.029,CST-1368DR,4548,5046,11807,01.118,551
2022-10-10T16:30:39,42.805,6.029,CST-1368DR,4548,5050,11815,01.116,551
2022-10-10T16:33:40,42.805,6.029,CST-1368DR,4548,5046,11806,01.119,551
2022-10-10T16:36:42,42.805,6.029,CST-1368DR,4548,5051,11819,01.114,551